[[{"header":{"parameterUnit":"m.s-1","parameterCategory":1,"la1":30.2991,"la2":30.254,"lo1":-89.0895,"lo2":-89.0444,"dy":0.0017,"dx":0.0017,"nx":28,"ny":28,"refTime":"2025-07-31T21:00:00:Z","depth":0,"parameterNumber":2,"parameterNumberName":"U-component_of_WINDS"},"data":[0,0,0,0,0,0,0,0,0,0,0,0,0,0,0,0,0,0,0,0,0,0,0,0,0,0,0,0,0,0,0,0,0,0,0,0,0,0,0,0,0,0,0,0,0,0,0,0,0,0,0,0,0,0,0,0,0,0,1.3211,1.3212,0,1.3311,1.3312,1.3314,1.3344,1.3343,1.3343,1.3342,1.3448,1.3451,1.3455,0,0,0,0,0,0,0,0,0,0,0,0,0,1.3047,1.305,1.3211,1.3212,1.3213,1.3311,1.3313,1.3314,1.3344,1.3343,1.3343,1.3342,1.3447,1.3451,1.3455,0,0,0,0,0,0,0,0,0,0,0,0,0,1.313,1.3051,1.3211,1.324,1.3244,1.3311,1.3313,1.3314,1.3344,1.3343,1.3342,1.3342,1.3446,1.345,1.3455,1.3502,0,0,1.3471,1.3473,0,0,0,0,0,0,0,0,1.3125,1.3136,1.3234,1.3238,1.3242,1.3314,1.3294,1.3377,1.3344,1.3306,1.3342,1.3341,1.3404,1.3413,1.3433,1.3507,1.3511,1.3471,1.3474,1.3476,1.3477,0,0,0,0,0,0,0,1.3119,1.3132,1.3251,1.3236,1.3241,1.3249,1.326,1.331,1.3358,1.3309,1.3312,1.3323,1.3406,1.3428,1.3436,1.3513,1.3471,1.3475,1.3478,1.348,1.3628,1.3629,0,0,0,0,0,0,1.3108,1.3127,1.3247,1.3254,1.318,1.3252,1.3265,1.3292,1.3358,1.3367,1.3323,1.3324,1.342,1.343,1.344,1.3498,1.3476,1.3481,1.3484,1.3627,1.3629,1.363,0,0,0,0,0,0,1.3105,1.3119,1.3243,1.3191,1.3207,1.3256,1.3286,1.3294,1.3316,1.3369,1.3378,1.3337,1.342,1.3433,1.3486,1.3502,1.3483,1.3487,1.3626,1.3628,1.3629,1.3614,0,0,0,0,0,0,1.31,1.3117,1.3135,1.3191,1.321,1.3287,1.3287,1.3297,1.3324,1.3326,1.3384,1.3393,1.342,1.3478,1.3491,1.3508,1.3491,1.3625,1.3627,1.3629,1.3613,1.3614,1.3616,0,0,0,0,0,1.3094,1.3127,1.3135,1.315,1.3233,1.3288,1.3299,1.3329,1.3326,1.3344,1.3377,1.3391,1.3498,1.3483,1.3498,1.3517,1.3624,1.3626,1.3628,1.3612,1.3614,1.3616,0,0,0,0,0,0,1.3073,1.3135,1.3145,1.3197,1.3237,1.3292,1.3316,1.333,1.3372,1.3372,1.3409,1.3422,1.3472,1.35,1.3482,1.3565,1.3562,1.3567,1.3544,1.3547,1.3548,1.354,1.3495,0,0,0,0,0,1.3074,1.3112,1.3165,1.3207,1.3226,1.3268,1.3293,1.3313,1.3355,1.3373,1.341,1.3452,1.3495,1.3522,1.3565,1.3617,1.363,1.3638,1.3639,1.364,1.3644,1.3673,1.3677,1.3637,1.3637,1.3637,0,0,1.3077,1.3116,1.3138,1.3203,1.3236,1.3276,1.3281,1.3323,1.3353,1.3379,1.3431,1.346,1.3509,1.3561,1.3586,1.3586,1.3658,1.3643,1.3643,1.3647,1.3676,1.3679,1.3683,1.3638,1.3638,1.3638,0,0,1.3103,1.3137,1.3174,1.3207,1.3256,1.3284,1.3293,1.3346,1.3366,1.3418,1.3438,1.3475,1.3549,1.3582,1.3609,1.3647,1.3661,1.366,1.3667,1.3695,1.3698,1.3701,1.3714,1.3718,1.3664,1.3664,1.3664,0,1.3101,1.3161,1.3192,1.3232,1.326,1.3285,1.3323,1.3354,1.3415,1.3434,1.3432,1.3525,1.3559,1.362,1.3629,1.365,1.3661,1.3654,1.3695,1.3698,1.3702,1.3714,1.3719,1.3664,1.3664,1.3664,1.3664,0,1.3155,1.3197,1.3221,1.3278,1.3309,1.3348,1.3386,1.3413,1.3431,1.3459,1.3511,1.3554,1.3605,1.3621,1.3639,1.3684,1.3682,1.3688,1.3685,1.3704,1.3717,1.3722,1.3663,1.3663,1.3663,1.3663,0,0,1.3171,1.3244,1.3252,1.3278,1.3334,1.3367,1.3408,1.3457,1.3479,1.3521,1.3555,1.3617,1.3622,1.3652,1.3674,1.3699,1.3725,1.3701,1.3703,1.3704,1.3777,1.3771,1.3777,1.3735,1.3736,1.3737,1.3772,0,1.3203,1.3275,1.3304,1.3363,1.3401,1.3425,1.346,1.3499,1.3526,1.3563,1.3593,1.3636,1.3639,1.3658,1.3683,1.3716,1.374,1.3715,1.3768,1.3769,1.3754,1.3783,1.3779,1.381,1.3777,1.3778,1.3779,0,1.3251,1.3291,1.3353,1.3404,1.3421,1.3452,1.3499,1.3534,1.3578,1.3596,1.3629,1.365,1.3694,1.3688,1.3749,1.3731,1.3754,1.3774,1.3776,1.3782,1.3775,1.3789,1.3821,1.3825,1.3787,1.3786,1.3786,0,1.3254,1.3324,1.337,1.3392,1.3453,1.3474,1.35,1.3544,1.3571,1.3612,1.3631,1.3677,1.3702,1.3738,1.377,1.3764,1.3828,1.3826,1.3844,1.3843,1.3856,1.3855,1.3891,1.3872,1.3872,1.3872,1.3872,0,1.3287,1.3324,1.3373,1.3401,1.3443,1.3477,1.3518,1.3546,1.3584,1.3619,1.3643,1.3675,1.3716,1.3753,1.3779,1.3825,1.3837,1.3853,1.3859,1.385,1.3848,1.3866,1.3864,1.3874,1.3873,1.3873,1.3873,0,1.3298,1.3332,1.3384,1.3437,1.3451,1.348,1.3525,1.3554,1.3582,1.3625,1.3637,1.3681,1.3727,1.3763,1.3822,1.384,1.3888,1.3895,1.3872,1.3875,1.3891,1.3889,1.394,1.3948,1.3924,1.3924,1.3925,0,1.3316,1.3345,1.3401,1.3425,1.3451,1.349,1.3518,1.3552,1.358,1.3632,1.3654,1.3701,1.374,1.3811,1.3849,1.3894,1.3903,1.3918,1.391,1.39,1.3902,1.39,1.3903,1.3918,1.3918,1.3918,1.3918,0,1.3345,1.336,1.3399,1.3443,1.3475,1.3512,1.355,1.3569,1.361,1.364,1.3686,1.3716,1.3776,1.3822,1.3872,1.39,1.3916,1.392,1.3927,1.3918,1.3903,1.3911,1.3874,1.3919,1.3919,1.3919,1.3919,1.3919,1.336,1.3386,1.3429,1.3471,1.3503,1.3537,1.3566,1.3598,1.3636,1.3687,1.3705,1.3752,1.3796,1.3863,1.3891,1.3929,1.393,1.394,1.3942,1.3944,1.3942,1.3897,1.3938,1.3938,1.3938,1.3938,1.3938,0,1.3389,1.3417,1.3456,1.3507,1.354,1.3552,1.3594,1.3621,1.3662,1.3701,1.3738,1.3791,1.3835,1.3876,1.3923,1.3945,1.3954,1.3956,1.3955,1.3961,1.3939,1.3928,1.3948,1.3948,1.3948,1.3948,1.3948,1.3948,1.3407,1.3452,1.3473,1.3534,1.3563,1.3608,1.3631,1.3663,1.3694,1.3751,1.3788,1.3814,1.3854,1.3903,1.3945,1.3956,1.3972,1.3972,1.3985,1.3964,1.3962,1.3961,1.3951,1.3975,1.3975,1.4003,1.4003,1.4004]},{"header":{"parameterUnit":"m.s-1","parameterCategory":1,"la1":30.2991,"la2":30.254,"lo1":-89.0895,"lo2":-89.0444,"dy":0.0017,"dx":0.0017,"nx":28,"ny":28,"refTime":"2025-07-31T21:00:00:Z","depth":0,"parameterNumber":3,"parameterNumberName":"V-component_of_WINDS"},"data":[0,0,0,0,0,0,0,0,0,0,0,0,0,0,0,0,0,0,0,0,0,0,0,0,0,0,0,0,0,0,0,0,0,0,0,0,0,0,0,0,0,0,0,0,0,0,0,0,0,0,0,0,0,0,0,0,0,0,4.6051,4.6051,0,4.6081,4.6081,4.6081,4.6104,4.6104,4.6104,4.6104,4.6131,4.6131,4.6132,0,0,0,0,0,0,0,0,0,0,0,0,0,4.601,4.601,4.6051,4.6051,4.6052,4.6081,4.6081,4.6081,4.6104,4.6104,4.6104,4.6104,4.613,4.6131,4.6132,0,0,0,0,0,0,0,0,0,0,0,0,0,4.6032,4.6011,4.6051,4.6066,4.6068,4.6081,4.6081,4.6082,4.6104,4.6104,4.6104,4.6104,4.613,4.6131,4.6132,4.613,0,0,4.6134,4.6134,0,0,0,0,0,0,0,0,4.6031,4.6034,4.6064,4.6065,4.6067,4.6089,4.6076,4.6098,4.6103,4.609,4.6104,4.6105,4.6116,4.6118,4.6123,4.6131,4.6132,4.6134,4.6135,4.6135,4.6135,0,0,0,0,0,0,0,4.6029,4.6032,4.6062,4.6064,4.6066,4.6071,4.6074,4.608,4.6101,4.6091,4.6093,4.6096,4.6117,4.6122,4.6124,4.6133,4.6134,4.6135,4.6135,4.6136,4.6142,4.6142,0,0,0,0,0,0,4.6026,4.6031,4.6062,4.6063,4.605,4.6071,4.6075,4.6081,4.6101,4.6104,4.6096,4.6097,4.6121,4.6123,4.6125,4.6124,4.6135,4.6136,4.6136,4.6142,4.6142,4.6142,0,0,0,0,0,0,4.6025,4.6028,4.606,4.6048,4.6052,4.6072,4.6078,4.6082,4.6087,4.6105,4.6108,4.6097,4.6121,4.6124,4.6129,4.6126,4.6136,4.6137,4.6143,4.6142,4.6142,4.6123,0,0,0,0,0,0,4.6024,4.6028,4.6028,4.6048,4.6053,4.6065,4.6078,4.6082,4.6089,4.6091,4.6107,4.611,4.6121,4.6128,4.613,4.6127,4.6137,4.6143,4.6142,4.6142,4.6124,4.6122,4.6121,0,0,0,0,0,4.6022,4.6021,4.6028,4.6032,4.6054,4.6065,4.6068,4.6082,4.6088,4.6088,4.61,4.6109,4.6126,4.6128,4.6131,4.6128,4.6143,4.6142,4.6142,4.6125,4.6123,4.6121,0,0,0,0,0,0,4.5998,4.6023,4.6032,4.6037,4.6049,4.6069,4.6069,4.6079,4.6088,4.6089,4.6106,4.611,4.6113,4.6121,4.6123,4.6127,4.6136,4.6135,4.6122,4.612,4.6118,4.6116,4.6138,0,0,0,0,0,4.5994,4.6002,4.6023,4.6025,4.6031,4.6049,4.6054,4.6065,4.6077,4.6082,4.6094,4.6104,4.6112,4.6116,4.6124,4.6126,4.613,4.6125,4.6123,4.6122,4.6121,4.6123,4.6121,4.6139,4.6139,4.6139,0,0,4.5984,4.5999,4.6003,4.6021,4.6032,4.6039,4.6053,4.606,4.6065,4.6082,4.6089,4.6098,4.6111,4.6114,4.6116,4.6121,4.6117,4.6121,4.6119,4.612,4.6122,4.612,4.6118,4.6139,4.6139,4.6139,0,0,4.597,4.5983,4.5986,4.5997,4.6014,4.6026,4.6027,4.6045,4.6053,4.606,4.6073,4.6079,4.6092,4.6101,4.6107,4.6098,4.6107,4.61,4.609,4.6091,4.609,4.6089,4.6085,4.6084,4.6099,4.6099,4.6099,0,4.5956,4.5969,4.5986,4.5993,4.6001,4.6019,4.6023,4.6032,4.6049,4.6053,4.6058,4.6076,4.6085,4.6092,4.609,4.6094,4.6095,4.6098,4.6089,4.6088,4.6087,4.6084,4.6083,4.6098,4.6099,4.6099,4.6099,0,4.595,4.5959,4.5959,4.5978,4.5986,4.599,4.6008,4.6014,4.6024,4.6035,4.6042,4.6055,4.6066,4.6068,4.6078,4.6076,4.6078,4.6086,4.6095,4.6084,4.6081,4.608,4.6097,4.6097,4.6098,4.6098,0,0,4.592,4.595,4.595,4.5959,4.598,4.5986,4.5992,4.6004,4.6009,4.602,4.6025,4.6036,4.6044,4.6051,4.6061,4.6063,4.6055,4.607,4.6071,4.6067,4.6054,4.6048,4.6046,4.6061,4.6061,4.6061,4.6053,0,4.5909,4.5922,4.5939,4.5946,4.5954,4.5972,4.5977,4.599,4.6001,4.6008,4.602,4.6028,4.6037,4.6042,4.6044,4.6055,4.6052,4.6056,4.6065,4.6065,4.6061,4.6045,4.6038,4.6029,4.6052,4.6052,4.6051,0,4.5898,4.5911,4.5919,4.594,4.5944,4.5948,4.5962,4.5969,4.5983,4.5991,4.6,4.6012,4.6018,4.6026,4.6034,4.6037,4.6041,4.6048,4.6048,4.6048,4.6057,4.6045,4.6027,4.6025,4.605,4.605,4.605,0,4.5875,4.5895,4.5902,4.591,4.5934,4.5937,4.5946,4.5961,4.5968,4.598,4.5984,4.5995,4.6001,4.6009,4.6024,4.6028,4.603,4.604,4.6036,4.6036,4.6035,4.6035,4.6017,4.6039,4.6039,4.6039,4.6039,0,4.5861,4.5865,4.5893,4.5897,4.5903,4.5922,4.5926,4.5937,4.5951,4.5957,4.5973,4.5978,4.5997,4.6005,4.6016,4.6021,4.6023,4.6029,4.6032,4.6028,4.6027,4.603,4.6031,4.6038,4.6038,4.6039,4.6039,0,4.5836,4.5855,4.5865,4.5888,4.5894,4.5897,4.5916,4.592,4.5933,4.5941,4.5944,4.5963,4.5973,4.5988,4.6001,4.6009,4.6012,4.6017,4.6008,4.6009,4.6005,4.6005,4.5988,4.5987,4.601,4.6009,4.6009,0,4.5825,4.583,4.5854,4.5861,4.5871,4.588,4.5888,4.5908,4.5915,4.5932,4.5935,4.5946,4.5956,4.597,4.5984,4.5995,4.6,4.5993,4.6001,4.5997,4.5999,4.5999,4.5999,4.5991,4.5991,4.599,4.599,0,4.5804,4.5814,4.5826,4.5841,4.5851,4.5863,4.5876,4.588,4.5902,4.5909,4.592,4.5928,4.5943,4.5953,4.5966,4.5975,4.5986,4.5988,4.5988,4.5983,4.5977,4.598,4.6002,4.5988,4.5988,4.5988,4.5988,4.5989,4.5786,4.5791,4.581,4.5822,4.5835,4.5847,4.5853,4.5867,4.5877,4.5892,4.5903,4.5913,4.5928,4.5947,4.5955,4.5962,4.5967,4.5967,4.5967,4.5966,4.5964,4.5977,4.5965,4.5965,4.5965,4.5965,4.5965,0,4.5766,4.5779,4.5791,4.581,4.582,4.5832,4.5847,4.5854,4.5864,4.5877,4.5888,4.59,4.5911,4.5927,4.5939,4.5942,4.5947,4.5944,4.5944,4.5945,4.5959,4.5959,4.594,4.594,4.594,4.594,4.594,4.594,4.5756,4.5766,4.5778,4.5793,4.5806,4.5818,4.5826,4.5837,4.5848,4.5862,4.5872,4.5883,4.5898,4.5911,4.5921,4.5925,4.5928,4.5924,4.593,4.5942,4.5944,4.5947,4.5946,4.5925,4.5925,4.5915,4.5915,4.5915]}]]